[[{"header":{"parameterUnit":"m.s-1","parameterCategory":2,"la1":30.2991,"la2":30.254,"lo1":-89.0895,"lo2":-89.0444,"dy":0.0017,"dx":0.0017,"nx":28,"ny":28,"refTime":"2023-09-23T09:00:00:Z","depth":"0","parameterNumber":2,"parameterNumberName":"U-component_of_CURRENTS"},"data":[0,0,0,0,0,0,0,0,0,0,0,0,0,0,0,0,0,0,0,0,0,0,0,0,0,0,0,0,0,0,0,0,0,0,0,0,0,0,0,0,0,0,0,0,0,0,0,0,0,0,0,0,0,0,0,0,0,0,0.3313,0.3314,0,0.3396,0.3397,0.3398,0.343,0.343,0.3431,0.3431,0.3441,0.3441,0.3442,0,0,0,0,0,0,0,0,0,0,0,0,0,0.3202,0.3203,0.3313,0.3315,0.3316,0.3396,0.3397,0.3398,0.343,0.343,0.3431,0.3431,0.3441,0.3441,0.3442,0,0,0,0,0,0,0,0,0,0,0,0,0,0.3261,0.3204,0.3313,0.3344,0.3348,0.3396,0.3397,0.3398,0.343,0.343,0.3431,0.3431,0.3441,0.3441,0.3442,0.3443,0,0,0.3443,0.3443,0,0,0,0,0,0,0,0,0.3258,0.3265,0.3338,0.3342,0.3346,0.3406,0.3362,0.341,0.343,0.3396,0.3431,0.3431,0.3424,0.3426,0.3439,0.3443,0.3444,0.3443,0.3443,0.3443,0.3443,0,0,0,0,0,0,0,0.3254,0.3262,0.3343,0.3339,0.3344,0.336,0.3368,0.3371,0.3405,0.3399,0.3402,0.3416,0.3426,0.3438,0.3439,0.3444,0.3443,0.3443,0.3443,0.3444,0.3461,0.3461,0,0,0,0,0,0,0.3248,0.3258,0.3341,0.3346,0.3304,0.3362,0.3371,0.3384,0.3407,0.3412,0.3416,0.3417,0.3438,0.3438,0.3439,0.3462,0.3443,0.3444,0.3444,0.3461,0.3461,0.3461,0,0,0,0,0,0,0.3246,0.3255,0.3337,0.3306,0.3318,0.3364,0.3379,0.3386,0.3406,0.3421,0.3424,0.3429,0.3438,0.3439,0.3448,0.3461,0.3444,0.3444,0.3461,0.3461,0.3461,0.3493,0,0,0,0,0,0,0.3242,0.3253,0.3257,0.3306,0.332,0.3372,0.3379,0.3387,0.3415,0.3418,0.3433,0.3434,0.3438,0.3447,0.3448,0.3461,0.3444,0.346,0.3461,0.3461,0.3491,0.3494,0.3496,0,0,0,0,0,0.3238,0.3247,0.3256,0.3266,0.3324,0.3373,0.3381,0.3412,0.3415,0.3428,0.3436,0.3434,0.3451,0.3448,0.3449,0.3462,0.346,0.3461,0.3461,0.349,0.3494,0.3496,0,0,0,0,0,0,0.3208,0.3253,0.3264,0.3288,0.3329,0.3379,0.3394,0.3414,0.3432,0.3429,0.3438,0.344,0.3454,0.345,0.3446,0.3467,0.3455,0.3455,0.3476,0.3479,0.3482,0.348,0.3445,0,0,0,0,0,0.3201,0.3216,0.3266,0.3287,0.3304,0.3348,0.3369,0.3392,0.3419,0.3428,0.3442,0.3448,0.3457,0.3461,0.3468,0.3477,0.3512,0.3485,0.3488,0.349,0.3488,0.3529,0.3536,0.3463,0.3463,0.3463,0,0,0.3195,0.3224,0.3232,0.3281,0.3311,0.3346,0.336,0.3396,0.3423,0.3423,0.3453,0.3459,0.3461,0.3478,0.3483,0.3476,0.3542,0.3491,0.3493,0.349,0.3531,0.3538,0.3545,0.3464,0.3464,0.3464,0,0,0.32,0.3217,0.3233,0.3265,0.3314,0.3344,0.3355,0.3407,0.3423,0.345,0.3459,0.347,0.3486,0.3495,0.3499,0.3515,0.3555,0.3519,0.3531,0.3572,0.3578,0.3584,0.3701,0.3717,0.3519,0.3519,0.3519,0,0.3192,0.3224,0.3247,0.3278,0.3307,0.3343,0.3376,0.34,0.3449,0.3462,0.3459,0.3492,0.3493,0.3515,0.3523,0.3522,0.3578,0.3522,0.3577,0.3583,0.3589,0.3706,0.3723,0.3521,0.3521,0.3521,0.352,0,0.3219,0.3241,0.3256,0.3304,0.3335,0.3369,0.341,0.3433,0.3453,0.3481,0.3507,0.3512,0.3532,0.3535,0.3534,0.3574,0.3618,0.3579,0.3573,0.3598,0.3721,0.3738,0.3523,0.3523,0.3522,0.3522,0,0,0.3217,0.3264,0.3269,0.3287,0.335,0.3378,0.3415,0.3462,0.3486,0.3513,0.3547,0.3556,0.3564,0.3567,0.3572,0.36,0.3707,0.361,0.3611,0.3734,0.3868,0.3957,0.3986,0.3682,0.3683,0.3684,0.3961,0,0.3236,0.3274,0.3303,0.3346,0.3372,0.3409,0.3444,0.3484,0.3515,0.3554,0.3561,0.3596,0.3576,0.3593,0.3616,0.3682,0.3744,0.364,0.3816,0.3823,0.3904,0.4004,0.3843,0.4078,0.3978,0.3981,0.3983,0,0.3263,0.3283,0.3316,0.336,0.3375,0.3407,0.3461,0.3496,0.3551,0.3574,0.3603,0.3628,0.369,0.3651,0.3791,0.3732,0.3804,0.3851,0.3862,0.3938,0.3942,0.4022,0.4114,0.3983,0.401,0.4008,0.4006,0,0.3247,0.3296,0.3315,0.3333,0.3389,0.3408,0.3442,0.3499,0.3539,0.3596,0.3649,0.3698,0.3766,0.3822,0.3955,0.3875,0.4136,0.4033,0.4193,0.4204,0.4096,0.4094,0.4078,0.413,0.4129,0.4128,0.4128,0,0.3259,0.3277,0.3304,0.3315,0.3345,0.339,0.3432,0.3471,0.3547,0.3624,0.366,0.3759,0.3809,0.3966,0.402,0.4224,0.4207,0.4239,0.4279,0.4112,0.4107,0.401,0.3949,0.4139,0.4137,0.4135,0.4133,0,0.3241,0.3261,0.3285,0.3323,0.3337,0.3356,0.3431,0.3475,0.3551,0.3659,0.3695,0.3852,0.4075,0.4189,0.4353,0.4361,0.4398,0.4574,0.443,0.4446,0.4396,0.4343,0.4274,0.4149,0.4755,0.4759,0.4762,0,0.3236,0.324,0.3271,0.3291,0.331,0.3345,0.3387,0.346,0.353,0.374,0.3815,0.4065,0.4242,0.4565,0.465,0.4825,0.4611,0.4749,0.4526,0.442,0.4389,0.4173,0.4052,0.4426,0.4426,0.4426,0.4427,0,0.3226,0.3232,0.3247,0.3283,0.3321,0.3349,0.3422,0.347,0.3601,0.373,0.3954,0.4114,0.4456,0.4576,0.4827,0.4876,0.4504,0.476,0.4636,0.4145,0.3915,0.3805,0.4281,0.4428,0.4428,0.4428,0.4428,0.4428,0.3223,0.3225,0.3253,0.3283,0.3326,0.3363,0.3368,0.3481,0.3596,0.378,0.3991,0.42,0.4414,0.4739,0.4769,0.4687,0.4618,0.4498,0.4464,0.4271,0.4056,0.4609,0.4797,0.4799,0.48,0.4802,0.4803,0,0.3226,0.3233,0.3264,0.3291,0.3322,0.3347,0.3406,0.3409,0.3527,0.3764,0.3956,0.4181,0.4321,0.4429,0.4485,0.4369,0.4082,0.4244,0.3818,0.3726,0.4214,0.4102,0.4161,0.4161,0.4161,0.4161,0.4162,0.4162,0.3234,0.3254,0.326,0.329,0.3303,0.3288,0.3296,0.3321,0.344,0.3594,0.3728,0.39,0.409,0.424,0.414,0.4041,0.3693,0.3594,0.3564,0.3835,0.385,0.3863,0.3739,0.3721,0.372,0.2854,0.2848,0.2844]},{"header":{"parameterUnit":"m.s-1","parameterCategory":2,"la1":30.2991,"la2":30.254,"lo1":-89.0895,"lo2":-89.0444,"dy":0.0017,"dx":0.0017,"nx":28,"ny":28,"refTime":"2023-09-23T09:00:00:Z","depth":"0","parameterNumber":3,"parameterNumberName":"V-component_of_CURRENTS"},"data":[0,0,0,0,0,0,0,0,0,0,0,0,0,0,0,0,0,0,0,0,0,0,0,0,0,0,0,0,0,0,0,0,0,0,0,0,0,0,0,0,0,0,0,0,0,0,0,0,0,0,0,0,0,0,0,0,0,0,-0.0673,-0.0674,0,-0.0739,-0.074,-0.0741,-0.0774,-0.0774,-0.0774,-0.0774,-0.0862,-0.0864,-0.0866,0,0,0,0,0,0,0,0,0,0,0,0,0,-0.0612,-0.0612,-0.0673,-0.0674,-0.0674,-0.0739,-0.074,-0.0741,-0.0774,-0.0774,-0.0774,-0.0774,-0.0861,-0.0864,-0.0867,0,0,0,0,0,0,0,0,0,0,0,0,0,-0.0655,-0.0613,-0.0673,-0.0698,-0.0701,-0.0739,-0.074,-0.0742,-0.0774,-0.0774,-0.0774,-0.0774,-0.086,-0.0864,-0.0867,-0.0891,0,0,-0.0878,-0.088,0,0,0,0,0,0,0,0,-0.0652,-0.0657,-0.0694,-0.0697,-0.07,-0.0748,-0.0751,-0.0792,-0.0774,-0.0747,-0.0774,-0.0774,-0.0825,-0.0832,-0.0845,-0.0895,-0.0898,-0.0878,-0.088,-0.0882,-0.0883,0,0,0,0,0,0,0,-0.0649,-0.0655,-0.07,-0.0695,-0.0698,-0.0719,-0.0725,-0.0759,-0.0787,-0.075,-0.0752,-0.0758,-0.0827,-0.0841,-0.0847,-0.09,-0.0878,-0.0881,-0.0884,-0.0885,-0.1014,-0.1016,0,0,0,0,0,0,-0.0638,-0.0652,-0.0698,-0.0702,-0.0675,-0.072,-0.0727,-0.0733,-0.0786,-0.0794,-0.0758,-0.076,-0.0835,-0.0843,-0.0851,-0.0879,-0.0882,-0.0885,-0.0887,-0.1013,-0.1015,-0.1016,0,0,0,0,0,0,-0.0636,-0.0641,-0.0695,-0.0678,-0.0686,-0.0721,-0.0728,-0.0734,-0.0748,-0.0792,-0.0801,-0.0765,-0.0836,-0.0846,-0.0892,-0.0882,-0.0887,-0.089,-0.1012,-0.1014,-0.1015,-0.0936,0,0,0,0,0,0,-0.0634,-0.064,-0.0637,-0.0677,-0.0686,-0.0714,-0.0728,-0.0736,-0.0752,-0.0754,-0.0801,-0.0809,-0.0836,-0.0886,-0.0895,-0.0887,-0.0893,-0.101,-0.1012,-0.1015,-0.0937,-0.0935,-0.0934,0,0,0,0,0,-0.0632,-0.0622,-0.0637,-0.0642,-0.0683,-0.0714,-0.0721,-0.0746,-0.0752,-0.0758,-0.0799,-0.0808,-0.0908,-0.089,-0.0901,-0.0893,-0.1009,-0.1012,-0.1015,-0.0938,-0.0936,-0.0934,0,0,0,0,0,0,-0.0587,-0.0626,-0.0643,-0.0644,-0.0677,-0.0719,-0.0721,-0.0743,-0.0779,-0.0781,-0.0823,-0.0835,-0.0871,-0.0906,-0.0885,-0.0944,-0.0961,-0.0966,-0.0899,-0.0898,-0.0896,-0.085,-0.0896,0,0,0,0,0,-0.0578,-0.0583,-0.0628,-0.0628,-0.0642,-0.0683,-0.0697,-0.0719,-0.0756,-0.0771,-0.0808,-0.0853,-0.0892,-0.0912,-0.0954,-0.0984,-0.098,-0.0992,-0.099,-0.0988,-0.0962,-0.0978,-0.0974,-0.1026,-0.1026,-0.1026,0,0,-0.0559,-0.0581,-0.0582,-0.0619,-0.0644,-0.0657,-0.0691,-0.071,-0.0718,-0.0776,-0.0799,-0.0847,-0.0902,-0.0935,-0.0954,-0.096,-0.0967,-0.0991,-0.0988,-0.0963,-0.0981,-0.0975,-0.097,-0.1028,-0.1027,-0.1027,0,0,-0.0521,-0.0545,-0.0538,-0.0565,-0.0603,-0.0632,-0.0637,-0.0685,-0.0704,-0.0742,-0.0783,-0.0825,-0.0889,-0.0921,-0.0946,-0.0963,-0.0958,-0.0985,-0.0931,-0.0948,-0.0942,-0.0937,-0.0891,-0.0883,-0.0982,-0.0982,-0.0982,0,-0.0493,-0.0497,-0.0541,-0.0545,-0.0556,-0.0617,-0.0614,-0.0645,-0.0703,-0.0711,-0.074,-0.0824,-0.0876,-0.0901,-0.0911,-0.0952,-0.0941,-0.0926,-0.0939,-0.0935,-0.0931,-0.0886,-0.0877,-0.0978,-0.0979,-0.0979,-0.0979,0,-0.046,-0.0462,-0.046,-0.0486,-0.0505,-0.0514,-0.0565,-0.0586,-0.062,-0.0652,-0.0689,-0.0765,-0.0808,-0.0841,-0.0879,-0.0883,-0.0874,-0.093,-0.0928,-0.092,-0.0874,-0.0866,-0.0973,-0.0975,-0.0976,-0.0977,0,0,-0.0396,-0.0428,-0.0426,-0.0421,-0.0475,-0.0479,-0.0498,-0.0525,-0.0511,-0.0587,-0.0572,-0.0666,-0.0701,-0.0733,-0.0792,-0.0811,-0.0777,-0.085,-0.0852,-0.0771,-0.0757,-0.0689,-0.0674,-0.0833,-0.0833,-0.0832,-0.0722,0,-0.0354,-0.0335,-0.0372,-0.0351,-0.0344,-0.04,-0.0401,-0.0433,-0.0468,-0.0474,-0.0552,-0.0565,-0.0663,-0.0666,-0.0711,-0.0765,-0.076,-0.0798,-0.0805,-0.0804,-0.0719,-0.0665,-0.063,-0.0524,-0.0714,-0.0713,-0.0712,0,-0.0308,-0.0301,-0.0267,-0.0266,-0.0267,-0.0262,-0.0259,-0.027,-0.0305,-0.0327,-0.037,-0.0427,-0.0468,-0.0551,-0.0619,-0.0636,-0.0678,-0.072,-0.0718,-0.0672,-0.0722,-0.0576,-0.0504,-0.0758,-0.0701,-0.0702,-0.0703,0,-0.0224,-0.0224,-0.0186,-0.019,-0.0203,-0.0184,-0.019,-0.0214,-0.0186,-0.0215,-0.0176,-0.028,-0.0264,-0.0385,-0.0476,-0.0545,-0.0514,-0.0632,-0.0595,-0.0589,-0.0567,-0.056,-0.0714,-0.0648,-0.0648,-0.0648,-0.0648,0,-0.0159,-0.0126,-0.0135,-0.011,-0.0045,-0.0091,-0.0023,-0.0042,-0.003,0.006,-0.0078,0.0006,-0.0218,-0.0237,-0.039,-0.0428,-0.0446,-0.0542,-0.0553,-0.0537,-0.0529,-0.0758,-0.0899,-0.0644,-0.0645,-0.0646,-0.0646,0,-0.0061,-0.0076,-0.0018,-0.0009,0.0003,0.0059,0.0106,0.0167,0.0157,0.028,0.0296,0.0257,0.0258,0.0068,-0.0061,-0.0243,-0.0443,-0.0344,-0.027,-0.0276,-0.0536,-0.0671,-0.0748,-0.0856,-0.0317,-0.0314,-0.0312,0,-0.0006,0.0032,0.0082,0.0139,0.0155,0.022,0.0284,0.0273,0.0358,0.0476,0.0575,0.0613,0.0711,0.0543,0.0246,0.0039,-0.0244,-0.0121,-0.0278,-0.0502,-0.0664,-0.0771,-0.0868,-0.0206,-0.0203,-0.0201,-0.0199,0,0.011,0.0131,0.0181,0.0296,0.0379,0.047,0.0562,0.0661,0.0712,0.0853,0.1077,0.1175,0.1056,0.0896,0.0575,0.0356,-0.0298,-0.008,-0.036,-0.0603,-0.0683,-0.0807,-0.0297,-0.0179,-0.0181,-0.0183,-0.0184,-0.0185,0.0212,0.028,0.0356,0.0469,0.0575,0.0733,0.0848,0.099,0.1195,0.1461,0.1504,0.1742,0.1392,0.0991,0.0649,-0.003,-0.0065,-0.0296,-0.0434,-0.0517,-0.0653,-0.0051,0.0066,0.0066,0.0065,0.0065,0.0064,0,0.0339,0.0409,0.0525,0.0681,0.0836,0.0841,0.1049,0.1201,0.1509,0.1806,0.2045,0.2066,0.1618,0.1034,0.0169,-0.0327,-0.0579,-0.064,-0.0855,-0.0939,-0.0437,-0.0472,-0.0409,-0.0409,-0.0409,-0.0408,-0.0408,-0.0408,0.0414,0.0549,0.0603,0.088,0.0995,0.1211,0.134,0.1593,0.1832,0.2251,0.2462,0.2585,0.2106,0.0558,-0.0575,-0.0855,-0.1247,-0.1253,-0.148,-0.1235,-0.1218,-0.1201,-0.1273,-0.1378,-0.138,-0.1946,-0.1952,-0.1956]}],[{"header":{"parameterUnit":"m.s-1","parameterCategory":2,"la1":30.2991,"la2":30.254,"lo1":-89.0895,"lo2":-89.0444,"dy":0.0017,"dx":0.0017,"nx":28,"ny":28,"refTime":"2023-09-23T09:00:00:Z","depth":"2","parameterNumber":2,"parameterNumberName":"U-component_of_CURRENTS"},"data":[0,0,0,0,0,0,0,0,0,0,0,0,0,0,0,0,0,0,0,0,0,0,0,0,0,0,0,0,0,0,0,0,0,0,0,0,0,0,0,0,0,0,0,0,0,0,0,0,0,0,0,0,0,0,0,0,0,0,0.2694,0.2691,0,0.256,0.256,0.256,0.2601,0.2602,0.2602,0.2603,0.2621,0.2621,0.2621,0,0,0,0,0,0,0,0,0,0,0,0,0,0.2567,0.2574,0.2694,0.2691,0.2687,0.256,0.256,0.256,0.2601,0.2602,0.2602,0.2603,0.2621,0.2621,0.2621,0,0,0,0,0,0,0,0,0,0,0,0,0,0.2569,0.2576,0.2695,0.2675,0.267,0.2559,0.256,0.256,0.2601,0.2602,0.2603,0.2604,0.2621,0.2621,0.2621,0.2597,0,0,0.262,0.262,0,0,0,0,0,0,0,0,0.257,0.2578,0.2681,0.2676,0.267,0.2578,0.252,0.2572,0.26,0.2651,0.2603,0.2604,0.2605,0.2606,0.2609,0.2598,0.2599,0.262,0.2619,0.2619,0.2619,0,0,0,0,0,0,0,0.257,0.258,0.2664,0.2677,0.2669,0.2526,0.2535,0.2529,0.2645,0.2647,0.2644,0.2592,0.2606,0.2609,0.261,0.2599,0.262,0.2619,0.2619,0.2619,0.2704,0.2707,0,0,0,0,0,0,0.2563,0.2584,0.2668,0.2658,0.2595,0.2528,0.2538,0.2625,0.2641,0.2636,0.2591,0.2594,0.2609,0.261,0.261,0.273,0.2619,0.2619,0.2619,0.2702,0.2705,0.2708,0,0,0,0,0,0,0.2564,0.2578,0.2673,0.2589,0.2589,0.253,0.2626,0.2621,0.2631,0.2592,0.2596,0.2603,0.261,0.2611,0.2629,0.2725,0.2619,0.2619,0.2699,0.2703,0.2706,0.2875,0,0,0,0,0,0,0.2563,0.2583,0.2644,0.2595,0.2593,0.2616,0.2622,0.2617,0.2584,0.2589,0.2603,0.2605,0.2611,0.2629,0.2629,0.2723,0.2619,0.2696,0.2701,0.2705,0.2866,0.2884,0.2899,0,0,0,0,0,0.2562,0.2564,0.2653,0.2658,0.2687,0.2613,0.2602,0.2571,0.2584,0.2589,0.2611,0.2606,0.266,0.263,0.2629,0.2726,0.2694,0.27,0.2705,0.2859,0.288,0.2899,0,0,0,0,0,0,0.2536,0.2566,0.2661,0.2689,0.2682,0.2611,0.2576,0.2573,0.2593,0.2615,0.2612,0.2616,0.268,0.2657,0.2624,0.2762,0.2685,0.2691,0.2803,0.2823,0.2839,0.2822,0.2618,0,0,0,0,0,0.2572,0.2616,0.2624,0.2665,0.2662,0.2649,0.2613,0.2612,0.2596,0.2607,0.2625,0.2655,0.2698,0.272,0.2739,0.2788,0.2768,0.2855,0.2871,0.2886,0.287,0.2904,0.2922,0.2726,0.2726,0.2725,0,0,0.258,0.2594,0.263,0.2663,0.267,0.2682,0.2638,0.2596,0.2657,0.2604,0.27,0.2702,0.2718,0.2802,0.283,0.2798,0.2942,0.2893,0.2905,0.2881,0.2911,0.293,0.2947,0.2729,0.2729,0.2728,0,0,0.2552,0.2648,0.2672,0.2677,0.2666,0.2669,0.2665,0.265,0.2706,0.277,0.2774,0.2809,0.2874,0.2906,0.2933,0.3033,0.3021,0.3065,0.3146,0.3182,0.3198,0.3212,0.3262,0.3279,0.3083,0.3083,0.3083,0,0.2563,0.2644,0.2651,0.2664,0.268,0.2681,0.272,0.2762,0.2769,0.2816,0.2831,0.292,0.2934,0.3022,0.3083,0.3076,0.309,0.308,0.3205,0.3217,0.3229,0.3275,0.3292,0.3092,0.3091,0.309,0.3089,0,0.2552,0.264,0.2627,0.2727,0.2745,0.2745,0.2818,0.2877,0.2949,0.298,0.3085,0.3102,0.3136,0.3187,0.318,0.3277,0.3264,0.3219,0.3158,0.3259,0.3302,0.3316,0.3104,0.3101,0.3099,0.3096,0,0,0.2524,0.2617,0.2623,0.272,0.2787,0.2795,0.293,0.3022,0.3082,0.3167,0.3253,0.3354,0.3315,0.3336,0.3329,0.3381,0.3506,0.335,0.3348,0.3404,0.361,0.354,0.3548,0.3494,0.3496,0.3498,0.3627,0,0.2541,0.2589,0.2648,0.2771,0.2827,0.2923,0.3034,0.3126,0.3207,0.328,0.3346,0.3404,0.3392,0.341,0.3461,0.3486,0.3542,0.3476,0.3496,0.3496,0.3425,0.3561,0.3283,0.3368,0.364,0.3642,0.3644,0,0.2545,0.2567,0.2663,0.2847,0.2883,0.2959,0.3127,0.3221,0.3324,0.3387,0.3439,0.3454,0.3551,0.351,0.3625,0.359,0.3606,0.3629,0.3633,0.3504,0.345,0.3299,0.3382,0.3666,0.3664,0.3663,0.3661,0,0.2503,0.2627,0.271,0.2756,0.2905,0.3011,0.3114,0.3232,0.3329,0.342,0.3474,0.3546,0.3611,0.3655,0.372,0.3684,0.3836,0.3778,0.3731,0.3727,0.3454,0.3422,0.3835,0.3835,0.3834,0.3834,0.3834,0,0.2508,0.2612,0.2694,0.2718,0.2845,0.2982,0.3101,0.3215,0.3335,0.3399,0.349,0.3566,0.3654,0.3748,0.3766,0.3817,0.3876,0.3765,0.3759,0.3511,0.3483,0.3685,0.3666,0.3839,0.3838,0.3837,0.3836,0,0.2547,0.2577,0.2671,0.2774,0.2828,0.292,0.3118,0.3179,0.3309,0.3401,0.3449,0.3633,0.3735,0.3808,0.3899,0.3885,0.3926,0.3911,0.363,0.3587,0.3781,0.3769,0.3877,0.3876,0.3875,0.3874,0.3873,0,0.2594,0.2612,0.2671,0.268,0.2751,0.2877,0.2952,0.3137,0.3186,0.3427,0.3462,0.3643,0.3696,0.3853,0.3835,0.3857,0.3909,0.3634,0.349,0.3804,0.3788,0.3777,0.3767,0.3223,0.3217,0.3212,0.3208,0,0.2638,0.2634,0.265,0.2638,0.27,0.2811,0.2932,0.2957,0.3133,0.3227,0.3369,0.3467,0.3611,0.3533,0.3599,0.3571,0.3608,0.3533,0.3947,0.325,0.3196,0.3177,0.3187,0.3164,0.3168,0.3172,0.3174,0.3176,0.2641,0.2655,0.2591,0.2597,0.2654,0.2714,0.2717,0.2815,0.2888,0.2956,0.3141,0.3194,0.3283,0.3226,0.3162,0.3139,0.3358,0.3238,0.325,0.3268,0.3163,0.3109,0.3044,0.3047,0.305,0.3053,0.3056,0,0.2596,0.2591,0.257,0.2516,0.25,0.2623,0.2665,0.2587,0.2559,0.2719,0.2774,0.2611,0.2628,0.2723,0.262,0.2657,0.2591,0.2562,0.2448,0.2497,0.2539,0.2391,0.207,0.2067,0.2063,0.206,0,0,0.2561,0.2495,0.2457,0.233,0.2341,0.2322,0.2313,0.224,0.2266,0.2205,0.2253,0.2465,0.2649,0.2295,0.2279,0.2159,0.2293,0.2079,0.288,0.2793,0.283,0.2957,0.279,0,0,0,0,0]},{"header":{"parameterUnit":"m.s-1","parameterCategory":2,"la1":30.2991,"la2":30.254,"lo1":-89.0895,"lo2":-89.0444,"dy":0.0017,"dx":0.0017,"nx":28,"ny":28,"refTime":"2023-09-23T09:00:00:Z","depth":"2","parameterNumber":3,"parameterNumberName":"V-component_of_CURRENTS"},"data":[0,0,0,0,0,0,0,0,0,0,0,0,0,0,0,0,0,0,0,0,0,0,0,0,0,0,0,0,0,0,0,0,0,0,0,0,0,0,0,0,0,0,0,0,0,0,0,0,0,0,0,0,0,0,0,0,0,0,0.0171,0.0173,0,0.0206,0.0205,0.0204,0.0116,0.0115,0.0114,0.0113,-0.0039,-0.0042,-0.0045,0,0,0,0,0,0,0,0,0,0,0,0,0,0.022,0.0217,0.0171,0.0173,0.0175,0.0206,0.0205,0.0203,0.0117,0.0115,0.0114,0.0113,-0.0038,-0.0041,-0.0045,0,0,0,0,0,0,0,0,0,0,0,0,0,0.0202,0.0216,0.0171,0.015,0.015,0.0206,0.0205,0.0203,0.0117,0.0115,0.0114,0.0112,-0.0036,-0.0041,-0.0046,-0.0045,0,0,-0.006,-0.0062,0,0,0,0,0,0,0,0,0.0203,0.0198,0.0151,0.0152,0.0152,0.0172,0.0168,0.0117,0.0117,0.0109,0.0113,0.0112,0.0028,0.0018,0.0003,-0.0052,-0.0059,-0.006,-0.0063,-0.0065,-0.0067,0,0,0,0,0,0,0,0.0204,0.0198,0.0165,0.0154,0.0155,0.0206,0.0198,0.0158,0.0058,0.011,0.0108,0.0143,0.0024,0.0008,-0.0001,-0.0061,-0.006,-0.0064,-0.0067,-0.0069,-0.0154,-0.0153,0,0,0,0,0,0,0.023,0.0197,0.0164,0.0168,0.0196,0.0207,0.0197,0.0151,0.0062,0.0055,0.0145,0.0139,0.0017,0.0004,-0.0007,-0.0075,-0.0065,-0.007,-0.0072,-0.0154,-0.0153,-0.0153,0,0,0,0,0,0,0.0229,0.0223,0.0163,0.0205,0.0203,0.0208,0.0158,0.0153,0.0137,0.0095,0.0079,0.0136,0.0015,-0.0,-0.0045,-0.008,-0.0072,-0.0076,-0.0155,-0.0154,-0.0153,-0.0171,0,0,0,0,0,0,0.0228,0.022,0.0205,0.0203,0.0202,0.0199,0.0161,0.0156,0.0171,0.0163,0.0082,0.0067,0.0013,-0.0037,-0.005,-0.0086,-0.008,-0.0156,-0.0154,-0.0153,-0.0172,-0.0171,-0.0171,0,0,0,0,0,0.0229,0.0262,0.0201,0.0201,0.0173,0.0203,0.0204,0.0194,0.0172,0.0169,0.0112,0.0069,-0.0039,-0.0041,-0.0055,-0.0094,-0.0156,-0.0155,-0.0154,-0.0172,-0.0171,-0.0171,0,0,0,0,0,0,0.0278,0.0257,0.0191,0.0206,0.0191,0.0195,0.0218,0.0204,0.0159,0.0141,0.0075,0.0056,0.0006,-0.0023,-0.0022,-0.0107,-0.0104,-0.0105,-0.0113,-0.0113,-0.0113,-0.0115,-0.0084,0,0,0,0,0,0.0277,0.0268,0.0248,0.0243,0.0238,0.0212,0.0229,0.0213,0.0189,0.0167,0.0108,0.0052,0.0004,-0.0037,-0.0076,-0.0125,-0.013,-0.0153,-0.0153,-0.0153,-0.0161,-0.021,-0.0216,-0.0149,-0.0149,-0.0149,0,0,0.0284,0.0282,0.0266,0.0253,0.0224,0.0235,0.0211,0.0234,0.0213,0.0159,0.0097,0.0056,-0.0,-0.0061,-0.0087,-0.0098,-0.0161,-0.0152,-0.0152,-0.0159,-0.021,-0.0217,-0.0223,-0.0148,-0.0148,-0.0148,0,0,0.0332,0.0282,0.0289,0.0294,0.0295,0.0276,0.0285,0.0264,0.0212,0.0165,0.0122,0.0075,-0.0014,-0.006,-0.0094,-0.0105,-0.0145,-0.0127,-0.0156,-0.0204,-0.0211,-0.0218,-0.0179,-0.0182,-0.0145,-0.0145,-0.0145,0,0.0335,0.0328,0.0303,0.0333,0.0339,0.0293,0.0301,0.0261,0.0224,0.0187,0.0141,0.0035,-0.0015,-0.0076,-0.0103,-0.011,-0.0124,-0.0162,-0.0208,-0.0215,-0.0221,-0.0181,-0.0184,-0.0146,-0.0145,-0.0145,-0.0145,0,0.0393,0.0386,0.0405,0.038,0.0382,0.0398,0.0345,0.0311,0.0239,0.02,0.0112,0.003,-0.0029,-0.0063,-0.0111,-0.0175,-0.0161,-0.0191,-0.0217,-0.023,-0.0184,-0.0187,-0.0147,-0.0146,-0.0146,-0.0146,0,0,0.0389,0.0424,0.0427,0.0415,0.0408,0.0416,0.0369,0.0318,0.0308,0.0195,0.0147,0.0024,-0.0017,-0.0056,-0.0114,-0.0191,-0.024,-0.0237,-0.0239,-0.021,-0.0304,-0.0325,-0.033,-0.031,-0.0312,-0.0314,-0.0235,0,0.0411,0.0485,0.0477,0.0491,0.0509,0.0452,0.0414,0.037,0.0309,0.0262,0.0132,0.0075,-0.0017,-0.0058,-0.0151,-0.0206,-0.026,-0.0255,-0.0285,-0.0284,-0.0315,-0.034,-0.0319,-0.0255,-0.0238,-0.0239,-0.0239,0,0.046,0.051,0.0548,0.0534,0.0524,0.0509,0.0461,0.0434,0.0369,0.0312,0.023,0.0157,0.0043,-0.0047,-0.0177,-0.0182,-0.0251,-0.0308,-0.0307,-0.0333,-0.0315,-0.0249,-0.0261,-0.0244,-0.0244,-0.0244,-0.0243,0,0.0505,0.0539,0.0566,0.0577,0.0572,0.0525,0.0484,0.0447,0.044,0.0358,0.0365,0.0215,0.0169,0.0008,-0.0124,-0.0164,-0.0252,-0.0294,-0.0358,-0.0355,-0.0344,-0.0339,-0.0392,-0.0392,-0.0392,-0.0393,-0.0393,0,0.0551,0.0549,0.0585,0.0616,0.0611,0.0569,0.0573,0.0514,0.0493,0.0549,0.0395,0.0411,0.0162,0.0085,-0.0078,-0.0212,-0.0201,-0.0363,-0.0363,-0.0341,-0.0337,-0.0347,-0.0343,-0.039,-0.039,-0.0391,-0.0391,0,0.0535,0.0586,0.0631,0.0649,0.0642,0.0633,0.0626,0.066,0.0621,0.0693,0.0661,0.0566,0.0457,0.025,0.0057,-0.0096,-0.0254,-0.03,-0.022,-0.0218,-0.0322,-0.0319,-0.0358,-0.0359,-0.036,-0.036,-0.0361,0,0.0518,0.0566,0.0664,0.072,0.0699,0.0714,0.0739,0.0708,0.078,0.0824,0.0865,0.0771,0.0742,0.0453,0.0132,-0.013,-0.0189,-0.0268,-0.0374,-0.0336,-0.0331,-0.0327,-0.0324,-0.0316,-0.0316,-0.0316,-0.0316,0,0.0498,0.0549,0.0614,0.0749,0.0799,0.0868,0.0898,0.0991,0.1028,0.1093,0.1173,0.114,0.0867,0.0572,0.0177,-0.0012,-0.0248,-0.0278,-0.0265,-0.0353,-0.0298,-0.0293,-0.029,-0.0316,-0.0316,-0.0316,-0.0316,-0.0316,0.0484,0.0524,0.0669,0.0776,0.0873,0.099,0.1079,0.1174,0.1304,0.1415,0.1396,0.1349,0.1016,0.048,0.0149,-0.0221,-0.0221,-0.0353,-0.0352,-0.0351,-0.0386,-0.034,-0.0364,-0.0365,-0.0365,-0.0365,-0.0365,0,0.0489,0.0554,0.0674,0.0852,0.099,0.1004,0.1182,0.1301,0.1497,0.1558,0.1599,0.1282,0.0943,0.056,0.0009,-0.0312,-0.0346,-0.0402,-0.0378,-0.0375,-0.0374,-0.0411,-0.0395,-0.0396,-0.0396,-0.0397,0,0,0.0501,0.0619,0.0698,0.0947,0.1052,0.1227,0.1349,0.151,0.1604,0.1658,0.1615,0.1503,0.1052,0.0653,0.0213,-0.0088,-0.0154,-0.0146,-0.009,-0.0007,-0.0001,-0.0316,-0.0368,0,0,0,0,0]}],[{"header":{"parameterUnit":"m.s-1","parameterCategory":2,"la1":30.2991,"la2":30.254,"lo1":-89.0895,"lo2":-89.0444,"dy":0.0017,"dx":0.0017,"nx":28,"ny":28,"refTime":"2023-09-23T09:00:00:Z","depth":"4","parameterNumber":2,"parameterNumberName":"U-component_of_CURRENTS"},"data":[0,0,0,0,0,0,0,0,0,0,0,0,0,0,0,0,0,0,0,0,0,0,0,0,0,0,0,0,0,0,0,0,0,0,0,0,0,0,0,0,0,0,0,0,0,0,0,0,0,0,0,0,0,0,0,0,0,0,0.1164,0.1166,0,0.1267,0.1267,0.1268,0.1284,0.1284,0.1283,0.1283,0.1386,0.1389,0.1392,0,0,0,0,0,0,0,0,0,0,0,0,0,0.1058,0.1059,0.1164,0.1166,0.1168,0.1267,0.1267,0.1268,0.1284,0.1284,0.1283,0.1283,0.1385,0.1388,0.1392,0,0,0,0,0,0,0,0,0,0,0,0,0,0.112,0.1059,0.1164,0.1193,0.1197,0.1267,0.1267,0.1268,0.1284,0.1284,0.1283,0.1283,0.1384,0.1388,0.1393,0.1427,0,0,0.1406,0.1408,0,0,0,0,0,0,0,0,0.1116,0.1122,0.1187,0.1191,0.1196,0.1269,0.1268,0.1324,0.1284,0.1243,0.1283,0.1283,0.1352,0.1359,0.1368,0.1432,0.1436,0.1406,0.1409,0.1411,0.1412,0,0,0,0,0,0,0,0.1112,0.1119,0.1197,0.1189,0.1195,0.1228,0.1235,0.1279,0.1293,0.1247,0.125,0.1273,0.1353,0.1364,0.1371,0.1438,0.1406,0.141,0.1413,0.1415,0.1547,0.1547,0,0,0,0,0,0,0.111,0.1114,0.1194,0.1201,0.1163,0.123,0.1238,0.124,0.1292,0.1302,0.1274,0.1274,0.1357,0.1366,0.1375,0.1467,0.1411,0.1415,0.1418,0.1546,0.1547,0.1548,0,0,0,0,0,0,0.1107,0.1115,0.119,0.1167,0.118,0.1233,0.1235,0.1242,0.1284,0.1314,0.1322,0.1312,0.1357,0.1369,0.1437,0.1469,0.1417,0.1421,0.1545,0.1546,0.1547,0.162,0,0,0,0,0,0,0.1103,0.1113,0.1125,0.1166,0.1181,0.1247,0.1236,0.1245,0.13,0.1302,0.1349,0.1356,0.1357,0.143,0.1441,0.1474,0.1425,0.1544,0.1545,0.1547,0.1617,0.1624,0.163,0,0,0,0,0,0.1098,0.1114,0.1124,0.1136,0.1192,0.1249,0.126,0.1291,0.1303,0.1326,0.136,0.1357,0.1447,0.1436,0.1448,0.1483,0.1543,0.1545,0.1547,0.1614,0.1622,0.163,0,0,0,0,0,0,0.1077,0.1119,0.1131,0.1159,0.121,0.1255,0.1291,0.1315,0.136,0.1371,0.1388,0.1398,0.1463,0.1464,0.1451,0.152,0.1487,0.1492,0.1534,0.1542,0.1548,0.1547,0.1428,0,0,0,0,0,0.1079,0.1103,0.1149,0.1181,0.1206,0.1256,0.129,0.1316,0.136,0.1381,0.1413,0.1443,0.1476,0.1504,0.1528,0.1587,0.1595,0.1608,0.1614,0.162,0.1625,0.1684,0.1697,0.1554,0.1554,0.1554,0,0,0.1078,0.1113,0.1124,0.1181,0.1222,0.1258,0.1274,0.1338,0.1371,0.1387,0.1447,0.1478,0.1496,0.1548,0.1576,0.156,0.1662,0.1622,0.1628,0.1629,0.1687,0.1702,0.1714,0.1555,0.1555,0.1555,0,0,0.1093,0.1124,0.1145,0.1187,0.1263,0.1292,0.1319,0.138,0.1409,0.1471,0.1487,0.1546,0.159,0.1617,0.1631,0.1693,0.1695,0.1694,0.1736,0.1794,0.1807,0.1818,0.1837,0.185,0.1698,0.1698,0.1698,0,0.1097,0.1126,0.1166,0.1203,0.1245,0.1308,0.1344,0.1383,0.146,0.15,0.1492,0.1588,0.1616,0.1687,0.1704,0.1712,0.1732,0.171,0.1806,0.1817,0.1827,0.1844,0.1857,0.1702,0.1701,0.1701,0.17,0,0.1119,0.1153,0.118,0.1236,0.128,0.1337,0.139,0.1443,0.1487,0.1531,0.1618,0.1657,0.1717,0.173,0.174,0.1831,0.1816,0.1811,0.1791,0.1847,0.186,0.1872,0.1707,0.1706,0.1705,0.1704,0,0,0.1098,0.1176,0.1191,0.1216,0.1308,0.1342,0.1409,0.1488,0.1542,0.1607,0.1683,0.1746,0.1793,0.1813,0.1844,0.1891,0.1987,0.1891,0.1892,0.1918,0.2099,0.2003,0.2007,0.2011,0.2014,0.2016,0.2075,0,0.1112,0.1174,0.1214,0.1273,0.1304,0.1376,0.1423,0.1504,0.158,0.1669,0.1738,0.1823,0.1817,0.1872,0.1921,0.1986,0.2024,0.197,0.2032,0.2033,0.195,0.202,0.2025,0.2084,0.2087,0.2089,0.209,0,0.1108,0.1159,0.1217,0.1283,0.1303,0.1348,0.1453,0.1514,0.165,0.1708,0.1816,0.1886,0.2002,0.1975,0.2093,0.2065,0.2089,0.211,0.2113,0.2007,0.1961,0.2017,0.2112,0.211,0.2109,0.2107,0.2106,0,0.1065,0.1147,0.1197,0.1227,0.1316,0.136,0.1422,0.1541,0.1613,0.1778,0.1854,0.1975,0.207,0.212,0.2195,0.2162,0.2303,0.2256,0.2176,0.2168,0.2203,0.219,0.2322,0.2322,0.2321,0.2321,0.2321,0,0.1049,0.1077,0.1184,0.1216,0.1267,0.1344,0.1438,0.1508,0.1655,0.1754,0.1894,0.1982,0.2119,0.2223,0.2238,0.226,0.2343,0.2196,0.219,0.2228,0.2217,0.2211,0.2197,0.2323,0.2323,0.2323,0.2322,0,0.0967,0.1045,0.1096,0.1213,0.1249,0.1292,0.144,0.1504,0.1651,0.1792,0.186,0.2042,0.2177,0.228,0.2388,0.2318,0.2344,0.2323,0.2366,0.2359,0.2144,0.2134,0.2213,0.2211,0.2208,0.2207,0.2205,0,0.0925,0.0952,0.1088,0.1127,0.1183,0.1278,0.1337,0.1487,0.1579,0.1802,0.1859,0.2064,0.2172,0.2245,0.2342,0.2379,0.2348,0.232,0.2212,0.2154,0.214,0.2133,0.2126,0.2202,0.2201,0.22,0.22,0,0.0847,0.0911,0.0971,0.1064,0.1133,0.12,0.1318,0.1374,0.1559,0.1709,0.1842,0.1936,0.209,0.2186,0.2264,0.2267,0.2316,0.2296,0.2298,0.2196,0.214,0.2128,0.2123,0.2192,0.2193,0.2194,0.2194,0,0.0793,0.0808,0.0915,0.0978,0.1056,0.1098,0.1175,0.1298,0.1405,0.1661,0.17,0.1902,0.2076,0.2129,0.2185,0.2217,0.2155,0.2043,0.2057,0.2066,0.1995,0.1901,0.189,0,0,0,0,0,0.0736,0.0751,0.0816,0.0885,0.096,0.1007,0.1145,0.1238,0.1433,0.1487,0.1598,0.1735,0.1854,0.1955,0.1959,0.2096,0.2146,0.2086,0.2018,0.215,0.2159,0.2091,0,0,0,0,0,0,0.0687,0.0744,0.0786,0.0803,0.0829,0.0895,0.0974,0.11,0.1166,0.1371,0.1466,0.1611,0.1773,0.1845,0.1921,0.1951,0.1866,0.2215,0.221,0.2145,0.2153,0.216,0.2093,0,0,0,0,0]},{"header":{"parameterUnit":"m.s-1","parameterCategory":2,"la1":30.2991,"la2":30.254,"lo1":-89.0895,"lo2":-89.0444,"dy":0.0017,"dx":0.0017,"nx":28,"ny":28,"refTime":"2023-09-23T09:00:00:Z","depth":"4","parameterNumber":3,"parameterNumberName":"V-component_of_CURRENTS"},"data":[0,0,0,0,0,0,0,0,0,0,0,0,0,0,0,0,0,0,0,0,0,0,0,0,0,0,0,0,0,0,0,0,0,0,0,0,0,0,0,0,0,0,0,0,0,0,0,0,0,0,0,0,0,0,0,0,0,0,0.0425,0.0424,0,0.0364,0.0364,0.0363,0.0337,0.0337,0.0337,0.0337,0.0251,0.0249,0.0247,0,0,0,0,0,0,0,0,0,0,0,0,0,0.0432,0.0433,0.0425,0.0424,0.0423,0.0364,0.0364,0.0363,0.0337,0.0337,0.0337,0.0337,0.0252,0.0249,0.0246,0,0,0,0,0,0,0,0,0,0,0,0,0,0.0408,0.0433,0.0425,0.0401,0.0398,0.0364,0.0364,0.0363,0.0337,0.0337,0.0337,0.0337,0.0253,0.0249,0.0246,0.0229,0,0,0.0236,0.0235,0,0,0,0,0,0,0,0,0.041,0.0408,0.0406,0.0403,0.0399,0.0356,0.0334,0.0316,0.0337,0.0363,0.0337,0.0337,0.0282,0.0277,0.0269,0.0225,0.0221,0.0236,0.0234,0.0232,0.0231,0,0,0,0,0,0,0,0.0412,0.041,0.0403,0.0405,0.0401,0.0364,0.0361,0.0331,0.0326,0.0361,0.0358,0.0348,0.0281,0.0273,0.0267,0.022,0.0236,0.0233,0.0231,0.023,0.0209,0.021,0,0,0,0,0,0,0.0419,0.0413,0.0405,0.0401,0.0402,0.0364,0.0361,0.0372,0.0326,0.0319,0.0348,0.0347,0.0278,0.0271,0.0264,0.0278,0.0232,0.0229,0.0227,0.0208,0.0209,0.0211,0,0,0,0,0,0,0.042,0.042,0.0407,0.0402,0.0397,0.0365,0.0376,0.0371,0.037,0.0317,0.0309,0.0353,0.0278,0.0268,0.0258,0.0273,0.0228,0.0225,0.0206,0.0208,0.021,0.0282,0,0,0,0,0,0,0.0421,0.0421,0.0433,0.0404,0.0398,0.0401,0.0376,0.037,0.0362,0.036,0.0318,0.031,0.0277,0.0264,0.0255,0.0267,0.0222,0.0204,0.0207,0.021,0.0278,0.0286,0.0293,0,0,0,0,0,0.0422,0.0441,0.0435,0.0433,0.0416,0.0401,0.0396,0.0372,0.0363,0.0369,0.0348,0.0311,0.0274,0.0262,0.0252,0.0263,0.0203,0.0206,0.0209,0.0274,0.0284,0.0293,0,0,0,0,0,0,0.0447,0.0439,0.0432,0.0447,0.043,0.0396,0.0397,0.038,0.0369,0.0371,0.0324,0.0315,0.031,0.0283,0.027,0.0269,0.0234,0.0236,0.0287,0.0296,0.0304,0.0311,0.022,0,0,0,0,0,0.0459,0.0476,0.0453,0.0466,0.0461,0.0432,0.0423,0.041,0.0391,0.0386,0.0356,0.0332,0.0314,0.0303,0.0281,0.0276,0.0225,0.0281,0.0288,0.0295,0.0297,0.0238,0.024,0.0221,0.0221,0.0221,0,0,0.0472,0.0468,0.0477,0.0472,0.0459,0.0461,0.0428,0.0425,0.0432,0.0377,0.0383,0.0355,0.032,0.0319,0.0315,0.0298,0.0274,0.0299,0.0305,0.0303,0.0242,0.0243,0.0244,0.0224,0.0223,0.0223,0,0,0.0498,0.0505,0.0523,0.0517,0.0503,0.0488,0.0492,0.0469,0.0467,0.0466,0.0433,0.0416,0.0388,0.0365,0.035,0.0388,0.0317,0.0388,0.043,0.0374,0.0374,0.0374,0.0307,0.03,0.0393,0.0393,0.0393,0,0.0507,0.0535,0.0523,0.0534,0.0537,0.0506,0.0523,0.0516,0.0493,0.0494,0.048,0.0439,0.0408,0.0399,0.0419,0.0402,0.0357,0.0395,0.0382,0.038,0.0379,0.031,0.0302,0.0397,0.0396,0.0396,0.0395,0,0.0541,0.0564,0.0575,0.0587,0.0588,0.06,0.0587,0.0591,0.0583,0.0566,0.0558,0.0515,0.0488,0.0482,0.0463,0.0447,0.0414,0.0395,0.0353,0.0385,0.0311,0.0301,0.0402,0.0401,0.04,0.0399,0,0,0.0557,0.0593,0.0597,0.0617,0.0623,0.0626,0.0648,0.0652,0.0661,0.0637,0.0636,0.0611,0.0578,0.056,0.0526,0.0485,0.0435,0.0448,0.0443,0.0373,0.0303,0.0263,0.0247,0.0413,0.0412,0.0411,0.0253,0,0.0585,0.0627,0.0639,0.0681,0.0703,0.0699,0.0719,0.0719,0.0711,0.0701,0.0657,0.0641,0.0611,0.0598,0.0554,0.0465,0.0413,0.0479,0.029,0.0284,0.0237,0.0235,0.0408,0.0245,0.0243,0.0241,0.024,0,0.061,0.064,0.0692,0.0738,0.0747,0.0767,0.0794,0.0812,0.0794,0.0784,0.0755,0.071,0.0656,0.0622,0.0476,0.0521,0.0423,0.0347,0.0339,0.0269,0.0225,0.0209,0.022,0.0222,0.0223,0.0225,0.0226,0,0.0623,0.0677,0.0726,0.0741,0.0782,0.081,0.0833,0.0838,0.0858,0.0835,0.0824,0.075,0.0701,0.0585,0.0434,0.0454,0.0252,0.0251,0.0116,0.0111,0.0161,0.0163,0.0137,0.0137,0.0137,0.0138,0.0138,0,0.0647,0.0685,0.074,0.0765,0.0824,0.0845,0.0897,0.0904,0.0911,0.0922,0.087,0.0833,0.069,0.0561,0.0432,0.0233,0.0239,0.0114,0.0068,0.0196,0.0204,0.0153,0.0157,0.0132,0.0133,0.0134,0.0135,0,0.0648,0.0687,0.0743,0.0805,0.0835,0.0875,0.0947,0.0975,0.0979,0.0985,0.0978,0.088,0.0709,0.054,0.0322,0.022,0.004,-0.0036,0.0097,0.0062,-0.0061,-0.0051,-0.0191,-0.0194,-0.0196,-0.0198,-0.02,0,0.0649,0.0682,0.0769,0.0809,0.0844,0.0915,0.0966,0.1006,0.103,0.1003,0.0993,0.0846,0.0754,0.0415,0.0241,-0.0033,-0.0063,-0.0153,-0.0083,-0.0063,-0.0095,-0.0081,-0.0069,-0.0203,-0.0204,-0.0204,-0.0205,0,0.0648,0.0683,0.0727,0.0816,0.0883,0.096,0.1029,0.1046,0.1077,0.1079,0.0986,0.0828,0.062,0.0389,0.0163,-0.0023,-0.0085,-0.0178,-0.0173,-0.0107,-0.008,-0.0106,-0.0091,-0.0213,-0.0212,-0.0211,-0.0211,0,0.064,0.0666,0.0734,0.081,0.0896,0.0972,0.1015,0.1035,0.1062,0.1033,0.0989,0.0794,0.0685,0.0389,0.0184,-0.001,-0.004,-0.0071,-0.0072,-0.0066,0.0027,0.0083,-0.0048,0,0,0,0,0,0.063,0.0666,0.0728,0.0809,0.0892,0.0956,0.104,0.1074,0.1097,0.1036,0.1018,0.0827,0.0525,0.0396,0.0193,0.0137,-0.0078,-0.0106,-0.0116,-0.0257,-0.0248,-0.0164,0,0,0,0,0,0,0.0624,0.0679,0.0716,0.0799,0.0855,0.0956,0.1016,0.104,0.1005,0.0996,0.0834,0.0777,0.0478,0.0631,0.0186,0.0128,0.0096,-0.024,-0.0244,-0.0263,-0.0254,-0.0247,-0.0157,0,0,0,0,0]}]]